sat.trackr.live / text

‹ back to catalog

STARLINK-2122

NORAD 47400 · 2021-005BD

PAYLOAD ACTIVE UNKNOWN

§ Identity

Operator
Country
US
Launch date
2021-01-20
Launch site
AFETR
Launch vehicle
Mass (kg)
RCS (m²)

Purposes: comms

External: N2YO · Heavens-Above · Gunter

§ Orbital elements

Epoch: 2026-09-19T12:20:24.869472Z

Period
94.01 min
Inclination
53.1600°
Eccentricity
0.0001323
Mean motion
15.31699891 rev/d
Perigee alt
469.8 km
Apogee alt
471.6 km
Semi-major
6,848.9 km
B*
1.4831e-5
RAAN
191.5043°
Arg perigee
89.7312°
Mean anomaly
270.3841°
Rev number
31,342

§ Raw data

STARLINK-21221 47400U 21005BD  26262.51417673  .00000095  00000+0  14831-4 0  99992 47400  53.1600 191.5043 0001323  89.7312 270.3841 15.31699891313424

JSON: /api/v1/satellites/47400 · /tle

For live sub-satellite position, see the globe view (requires WebGL).

§ Visibility from observer

Set your observer location to see the next 7 days of passes ≥ 10°. The values pass through the URL so the page stays shareable.

No JS? Fill the form by hand. The geolocation button needs JavaScript.